This demonstration page uses our WeatherBlox Daily Observations layout. Learn more.

Left ArrowRight Arrow

Hourly Observations for April 6, 2021

Temp ( °F °C ) Dew Point ( °F °C ) Humidity (%) Winds ( mph kmh ) Pressure ( in mb ) Visibility ( mi km ) Precip ( " mm )
12:15 am 00:15 Clear 67 19.2 51 10.5 57 57 S 12 19 29.51 999 10 16.0934 0 0
12:35 am 00:35 Clear 67 19.3 51 10.5 57 57 S 12 19 29.5 999 10 16.0934 0 0
12:55 am 00:55 Clear 66 18.7 51 10.5 59 59 SSE 12 19 29.51 999 10 16.0934 0 0
1:15 am 01:15 Clear 65 18.5 51 10.7 61 61 SSE 14 22 29.5 999 10 16.0934 0 0
1:35 am 01:35 Clear 65 18.1 52 11 63 63 SSE 12 19 29.5 999 10 16.0934 0 0
1:55 am 01:55 Clear 64 18 52 11.1 64 64 SSE 8 13 29.51 999 10 16.0934 0 0
2:15 am 02:15 Clear 63 17.1 52 11.1 68 68 SSE 5 7 29.51 999 10 16.0934 0 0
2:35 am 02:35 Clear 62 16.5 52 11.1 71 71 SE 8 13 29.51 999 10 16.0934 0 0
2:55 am 02:55 Clear 61 16.3 52 11.1 72 72 SE 10 17 29.5 999 10 16.0934 0 0
3:15 am 03:15 Clear 61 16.2 52 11.2 72 72 SE 8 13 29.5 999 10 16.0934 0 0
3:35 am 03:35 Clear 62 16.6 52 11.3 71 71 SSE 7 11 29.49 999 10 16.0934 0 0
3:55 am 03:55 Clear 66 18.8 52 11.3 62 62 S 22 35 29.46 998 10 16.0934 0 0
4:15 am 04:15 Clear 68 19.8 52 11.1 57 57 S 23 37 29.44 997 10 16.0934 0 0
4:35 am 04:35 Partly Cloudy with Thunderstorms 67 19.6 52 11.2 59 59 S 24 39 29.44 997 10 16.0934 0 0
4:55 am 04:55 Partly Cloudy 65 18.6 52 11.2 62 62 SSE 17 28 29.46 998 10 16.0934 0 0
5:15 am 05:15 Clear 64 17.6 53 11.5 68 68 SSE 17 28 29.47 998 10 16.0934 0 0
5:35 am 05:35 Clear 62 16.7 53 11.5 72 72 SE 14 22 29.48 998 10 16.0934 0 0
5:55 am 05:55 Partly Cloudy 61 16.3 53 11.6 74 74 SE 15 24 29.48 998 10 16.0934 0 0
6:15 am 06:15 Clear 61 16.3 53 11.5 73 73 SE 16 26 29.48 998 10 16.0934 0 0
6:35 am 06:35 Clear 60 15.7 53 11.5 76 76 SE 14 22 29.48 998 10 16.0934 0 0
6:55 am 06:55 Clear 60 15.6 53 11.5 77 77 SE 9 15 29.48 998 10 16.0934 0 0
7:15 am 07:15 Sunny 60 15.8 53 11.6 76 76 SE 17 28 29.48 998 10 16.0934 0 0
7:35 am 07:35 Sunny 60 15.6 53 11.5 77 77 SE 16 26 29.48 998 10 16.0934 0 0
7:55 am 07:55 Sunny 60 15.6 53 11.6 77 77 SE 18 30 29.48 998 10 16.0934 0 0
8:15 am 08:15 Sunny 60 15.6 53 11.6 77 77 SE 21 33 29.48 998 10 16.0934 0 0
8:35 am 08:35 Sunny 62 16.6 54 12 74 74 SE 22 35 29.48 998 10 16.0934 0 0
8:55 am 08:55 Sunny 62 16.7 53 11.8 73 73 SSE 20 31 29.48 998 10 16.0934 0 0
9:15 am 09:15 Sunny 63 17.2 53 11.9 71 71 SSE 21 33 29.46 998 10 16.0934 0 0
9:35 am 09:35 Sunny 64 17.9 54 12 69 69 SSE 22 35 29.45 997 10 16.0934 0 0
9:55 am 09:55 Sunny 65 18.5 54 12 66 66 SSE 18 30 29.44 997 10 16.0934 0 0
10:15 am 10:15 Sunny 66 18.9 54 12 64 64 SSE 20 31 29.43 997 10 16.0934 0 0
10:35 am 10:35 Partly Cloudy 67 19.7 53 11.9 61 61 SSE 20 31 29.42 996 10 16.0934 0 0
10:55 am 10:55 Partly Cloudy 68 20.1 53 11.7 59 59 SSE 16 26 29.42 996 10 16.0934 0 0
11:15 am 11:15 Sunny 69 20.6 53 11.7 57 57 SSE 20 31 29.42 996 10 16.0934 0 0
11:35 am 11:35 Partly Cloudy 70 21.1 53 11.9 56 56 SSE 13 20 29.42 996 10 16.0934 0 0
11:55 am 11:55 Partly Cloudy 72 22 54 12.1 54 54 SE 18 30 29.41 996 10 16.0934 0 0
12:15 pm 12:15 Partly Cloudy 72 22.4 54 12 52 52 SSE 21 33 29.4 996 10 16.0934 0 0
12:35 pm 12:35 Mostly Cloudy 73 22.8 54 12 51 51 SE 23 37 29.4 995 10 16.0934 0 0
12:55 pm 12:55 Mostly Cloudy 74 23.6 53 11.9 48 48 SSE 18 30 29.39 995 10 16.0934 0 0
1:15 pm 13:15 Cloudy 74 23.3 54 12.1 49 49 SSE 21 33 29.38 995 10 16.0934 0 0
1:35 pm 13:35 Cloudy 74 23.5 54 12.1 49 49 S 24 39 29.38 995 10 16.0934 0 0
1:55 pm 13:55 Cloudy 74 23.3 54 12.1 49 49 SSE 24 39 29.37 995 10 16.0934 0 0
2:15 pm 14:15 Cloudy 74 23.5 54 12.3 50 50 SSE 22 35 29.37 995 10 16.0934 0 0
2:35 pm 14:35 Cloudy 74 23.6 54 12.4 50 50 SSE 20 31 29.37 995 10 16.0934 0 0
2:55 pm 14:55 Cloudy 76 24.3 55 12.6 48 48 SSE 18 30 29.34 994 10 16.0934 0 0
3:15 pm 15:15 Cloudy 75 24.1 54 12.2 47 47 SSE 20 31 29.35 994 10 16.0934 0 0
3:35 pm 15:35 Cloudy 76 24.3 55 12.5 48 48 SSE 21 33 29.34 994 10 16.0934 0 0
3:55 pm 15:55 Cloudy 76 24.5 55 12.5 47 47 SE 23 37 29.34 994 10 16.0934 0 0
4:15 pm 16:15 Cloudy 76 24.2 55 12.6 48 48 SE 23 37 29.34 993 10 16.0934 0 0
4:35 pm 16:35 Mostly Cloudy 76 24.3 55 12.6 48 48 SE 22 35 29.33 993 10 16.0934 0 0
4:55 pm 16:55 Cloudy 75 23.9 56 13.4 52 52 SE 23 37 29.35 994 10 16.0934 0 0
5:10 pm 17:10 Mostly Cloudy 74 23.6 56 13.5 53 53 SSE 21 33 29.35 994 10 16.0934 0 0
5:35 pm 17:35 Partly Cloudy 75 24.1 57 13.9 53 53 SE 25 41 29.34 993 10 16.0934 0 0
5:55 pm 17:55 Mostly Cloudy 74 23.5 57 13.8 55 55 SE 26 43 29.35 994 10 16.0934 0 0
6:15 pm 18:15 Partly Cloudy 72 22.3 57 14 59 59 SE 24 39 29.36 994 10 16.0934 0 0
6:35 pm 18:35 Partly Cloudy 71 21.7 57 14.1 62 62 SE 28 44 29.37 994 10 16.0934 0 0
6:55 pm 18:55 Partly Cloudy 71 21.4 58 14.4 65 65 SSE 17 28 29.36 994 10 16.0934 0 0
7:15 pm 19:15 Sunny 71 21.5 58 14.3 64 64 SE 26 43 29.38 995 10 16.0934 0 0
7:35 pm 19:35 Sunny 70 21.1 58 14.5 66 66 SSE 8 13 29.4 996 10 16.0934 0 0
7:55 pm 19:55 Mostly Cloudy 58 14.2 44 6.5 60 60 N 22 35 29.49 999 10 16.0934 0 0
8:15 pm 20:15 Cloudy 55 12.7 42 5.7 63 63 NNW 17 28 29.52 1000 10 16.0934 0 0
8:35 pm 20:35 Cloudy 51 10.5 42 5.5 71 71 NNW 25 41 29.56 1001 10 16.0934 0 0
8:55 pm 20:55 Cloudy with Nearby Thunderstorms 49 9.3 42 5.6 78 78 NNW 25 41 29.57 1001 10 16.0934 0 0
9:15 pm 21:15 Cloudy 47 8.6 42 5.4 81 81 N 28 44 29.59 1002 10 16.0934 0 0
9:35 pm 21:35 Cloudy 48 8.9 42 5.5 79 79 NNW 25 41 29.61 1003 10 16.0934 0 0
9:55 pm 21:55 Cloudy 47 8.3 41 5 80 80 NNW 22 35 29.64 1004 10 16.0934 0 0
10:15 pm 22:15 Cloudy 45 7.2 39 4.1 81 81 NNW 18 30 29.67 1005 10 16.0934 0 0
10:35 pm 22:35 Cloudy 44 6.7 39 4.1 84 84 NNW 30 48 29.68 1005 10 16.0934 0 0
10:55 pm 22:55 Cloudy 43 6.2 39 3.7 84 84 NNW 25 41 29.71 1006 10 16.0934 0 0
11:15 pm 23:15 Cloudy 42 5.7 38 3.4 85 85 NNW 20 31 29.72 1006 10 16.0934 0 0
11:35 pm 23:35 Cloudy 42 5.5 38 3.1 85 85 NNW 26 43 29.73 1007 10 16.0934 0 0
11:55 pm 23:55 Cloudy 41 5.2 37 2.7 84 84 NNW 24 39 29.76 1008 10 16.0934 0 0

Powered by AerisWeather